Find Kosmos-381

NORAD ID: 4783 Int'l Des: 1970-102 Owner: OKB10 Country: SU operational
LEOCIRCULAR

Current View

Loading 3D Globe...

About Kosmos-381

Kosmos-381 (NORAD 4783) is a satellite by OKB10 of SU. It operates in LEO, CIRCULAR orbit

Upcoming Passes

Passes for default location (London). Set your location on the main map for personalized predictions.

Altitude History

Loading altitude history...

Two-Line Element Set

1 04783U 70102A 26195.61708111 -.00000006 00000-0 17684-4 0 9997
2 04783 74.0344 325.8989 0031007 338.1663 21.8133 13.75048248789926
Epoch: Jul 14, 2026 • Age: 8 hours

Current Status

Altitude 1006.4 km
Apogee / Perigee N/A
Velocity 7.34 km/s
Sub-Earth Point -45.10°S, 114.35°W
Type other

Most Searched